Weather History for Paganella, Italy

Change the Weather History Date:

Thursday, December 13, 2012

  Actual Average Record
Temperature  
Mean Temperature 11 °F -  
Max Temperature 16 °F 29 °F 42 °F (1998)
Min Temperature 6 °F 20 °F 5 °F (2001)
Degree Days  
Heating Degree Days 54    
Moisture  
Dew Point 3 °F    
Average Humidity 71    
Maximum Humidity 100    
Minimum Humidity 31    
Precipitation  
Precipitation 0.00 in 0.04 in - ()
Sea Level Pressure  
Sea Level Pressure 29.80 in    
Wind  
Wind Speed 14 mph ()    
Max Wind Speed 24 mph    
Max Gust Speed -    
Visibility 1.8 miles    
Events Fog , Snow    
Averages and records for this station are not official NWS values.
T = Trace of Precipitation, MM = Missing Value Source: Averaged Metar Reports

Daily Weather History Graph

Daily Weather History Graph

Search for Another Location

Airport:

Trip Planner

Search our weather history database for the weather conditions in past years. The results will help you decide how hot, cold, wet, or windy it might be!

Date:

Astronomy

Dec. 13, 2012 Rise Set
Actual Time 7:50 AM CET 4:30 PM CET
Civil Twilight 7:15 AM CET 5:04 PM CET
Nautical Twilight 6:37 AM CET 5:42 PM CET
Astronomical Twilight 6:01 AM CET 6:19 PM CET
Moon 7:40 AM CET (12/13) 4:54 PM CET (12/13)
Length of Visible Light 9h 49m
Length of Day
8h 40m
Waxing Crescent, 0% of the Moon is Illuminated
Dec 13
Waxing Crescent
Dec 20
First Quarter
Dec 28
Full
Jan 5
Last Quarter
Jan 11
New

Hourly Weather History & Observations

Time (CET) Temp. Windchill Dew Point Humidity Pressure Visibility Wind Dir Wind Speed Gust Speed Precip Events Conditions
12:55 AM 8.6 °F -6.3 °F -7.6 °F 48% 29.80 in - South 11.5 mph - N/A   Clear
1:00 AM 9 °F - -8 °F 31%  in 31 mi South 11.5 mph - -  
1:55 AM 8.6 °F -8.9 °F -5.8 °F 52% 29.80 in - SSW 16.1 mph - N/A   Clear
2:55 AM 8.6 °F -9.5 °F -4.0 °F 57% 29.80 in - SSW 17.3 mph - N/A   Clear
3:55 AM 8.6 °F -7.7 °F -4.0 °F 57% 29.80 in - SSW 13.8 mph - N/A   Clear
4:00 AM 8 °F - -4 °F 44%  in 31 mi SSW 13.8 mph - -  
4:55 AM 6.8 °F -11.3 °F -4.0 °F 61% 29.80 in - SSW 16.1 mph - N/A   Clear
5:55 AM 6.8 °F -11.8 °F -4.0 °F 61% 29.80 in - SSW 17.3 mph - N/A   Clear
6:55 AM 6.8 °F -10.7 °F -4.0 °F 61% 29.80 in - SSW 15.0 mph - N/A   Clear
7:00 AM 7 °F - -3 °F 49%  in 31 mi SSW 15.0 mph - -   Clear
7:55 AM 6.8 °F -11.3 °F -4.0 °F 61% 29.80 in - SSW 16.1 mph - N/A   Clear
8:55 AM 6.8 °F -10.7 °F -2.2 °F 67% 29.80 in - SW 15.0 mph - N/A   Clear
9:55 AM 8.6 °F -7.7 °F -0.4 °F 67% 29.80 in - SW 13.8 mph - N/A   Clear
10:00 AM 9 °F - 0 °F 54%  in 25 mi SW 13.8 mph - -   Mostly Cloudy
10:55 AM 10.4 °F -6.0 °F 1.4 °F 67% 29.80 in - SW 15.0 mph - N/A   Clear
11:55 AM 10.4 °F -4.1 °F 3.2 °F 73% 29.80 in - SW 11.5 mph - N/A   Clear
12:55 PM 12.2 °F -3.7 °F 3.2 °F 67% 29.80 in - WSW 15.0 mph - N/A   Clear
1:00 PM 11 °F - 4 °F 61%  in 25 mi WSW 15.0 mph - -   Scattered Clouds
1:55 PM 12.2 °F -3.1 °F 5.0 °F 73% 29.80 in - SW 13.8 mph - N/A   Clear
2:55 PM 12.2 °F -5.3 °F 5.0 °F 73% 29.80 in - SW 18.4 mph - N/A   Clear
3:55 PM 12.2 °F -2.5 °F 6.8 °F 79% 29.80 in - SSW 12.7 mph - N/A   Clear
4:00 PM 13 °F - 6 °F 64%  in 22 mi SSW 12.7 mph - -   Scattered Clouds
4:55 PM 12.2 °F -3.7 °F 10.4 °F 92% 29.80 in 6.2 mi SW 15.0 mph - N/A   Partly Cloudy
5:55 PM 14.0 °F -3.0 °F 10.4 °F 86% 29.80 in 6.2 mi SW 18.4 mph - N/A   Partly Cloudy
6:55 PM 14.0 °F -3.0 °F 14.0 °F 100% 29.80 in 0.0 mi SW 18.4 mph - N/A Fog Light Freezing Fog
7:00 PM 14 °F - 13 °F 97%  in 0 mi SW 18.4 mph - - Fog Heavy Fog
7:55 PM 15.8 °F -0.2 °F 15.8 °F 100% 29.80 in 0.0 mi SW 17.3 mph - N/A Fog Light Freezing Fog
8:55 PM 15.8 °F -2.7 °F 15.8 °F 100% 29.80 in - SSW 24.2 mph - N/A Fog Light Freezing Fog
9:55 PM 15.8 °F -1.1 °F 15.8 °F 100% 29.80 in - SSW 19.6 mph - N/A Fog Light Freezing Fog
10:00 PM 16 °F - 16 °F 98%  in 0 mi SSW 19.6 mph - - Snow Light Snow
10:55 PM 15.8 °F -1.9 °F 15.8 °F 100% 29.83 in 0.0 mi SSW 21.9 mph - N/A Fog Light Freezing Fog